Home   Weather   Wilmington   Past weeks

Flag for USA Past Weather in Wilmington, Delaware, USA — Yesterday and Last 2 Weeks

Now
44 °F

Fog.


Feels Like: 42 °F
Forecast: 43 / 52 °F
Wind: 5 mph from Northeast

Location: New Castle County Airport

Current Time: Jan 17, 2017 at 9:11:33 pm

Latest Report: Jan 17, 2017 at 7:51 pm


Visibility: 1 mi

Pressure: 29.99 "Hg

Humidity: 100%

Dew Point: 44 °F

Location of WilmingtonLocation

Past Weather in Wilmington — Graph

°F

Wilmington Temperature Yesterday

Maximum temperature yesterday: 39 °F (at 12:51 pm)
Minimum temperature yesterday: 23 °F (at 3:51 am)
Average temperature yesterday: 34 °F

High & Low Weather Summary for the Past Weeks

 TemperatureHumidityPressure
High67 °F (Jan 12, 1:51 pm)100% (Jan 3, 9:51 am)30.80 "Hg (Jan 3, 9:51 am)
Low10 °F (Jan 9, 4:51 am)33% (Jan 4, 5:51 pm)29.49 "Hg (Jan 4, 3:51 am)
Average35 °F74%30.21 "Hg
* Reported Jan 2 7:51 pm — Jan 17 7:51 pm, Wilmington, Weather by CustomWeather, © 2017

Note: Actual official high and low records may vary slightly from our data, if they occured in-between our weather recording intervals... More about our weather records

Advertising

Wilmington Weather History for the Previous 24 Hours

Scroll right to see more
 ConditionsComfort  
Time TempWeatherWind HumidityBarometerVisibility
7:51 pm
Tue, Jan 17
44 °FFog.5 mph100%29.99 "Hg1 mi
6:51 pm44 °FFog.5 mph96%30.00 "Hg2 mi
6:10 pm44 °FLight rain. Fog.3 mph100%30.01 "Hg3 mi
5:59 pm44 °FRain. Fog.3 mph100%30.01 "Hg2 mi
5:11 pm43 °FLight rain. Fog.6 mph100%30.02 "Hg3 mi
4:51 pm43 °FHeavy rain. Fog.8 mph97%30.02 "Hg2 mi
4:11 pm43 °FFog.7 mph97%30.04 "Hg3 mi
3:51 pm43 °FFog.6 mph97%30.05 "Hg2 mi
2:51 pm44 °FLight rain. Fog.8 mph93%30.05 "Hg4 mi
1:51 pm43 °FFog.5 mph97%30.08 "Hg4 mi
12:51 pm42 °FFog.7 mph92%30.11 "Hg4 mi
12:10 pm41 °FFog.8 mph93%30.12 "Hg4 mi
11:51 am40 °FFog.5 mph97%30.16 "Hg4 mi
10:51 am40 °FLight rain. Fog.7 mph93%30.21 "Hg5 mi
9:51 am39 °FLight rain. Fog.5 mph93%30.22 "Hg6 mi
8:51 am39 °FFog.3 mph93%30.23 "Hg4 mi
7:51 am38 °FFog.5 mph93%30.23 "Hg5 mi
6:51 am38 °FOvercast.3 mph90%30.22 "Hg10 mi
6:21 am38 °FOvercast.6 mph86%30.22 "Hg10 mi
5:51 am38 °FMostly cloudy.3 mph86%30.25 "Hg10 mi
4:51 am38 °FMostly cloudy.No wind83%30.25 "Hg10 mi
3:51 am38 °FMostly cloudy.No wind83%30.26 "Hg10 mi
2:51 am38 °FOvercast.3 mph79%30.28 "Hg10 mi
1:51 am37 °FOvercast.5 mph82%30.28 "Hg10 mi
1:08 am38 °FMostly cloudy.5 mph79%30.28 "Hg10 mi
12:51 am38 °FMostly cloudy.5 mph79%30.29 "Hg10 mi
11:51 pm
Mon, Jan 16
38 °FOvercast.3 mph83%30.32 "Hg10 mi
10:51 pm38 °FOvercast.No wind83%30.34 "Hg9 mi
9:51 pm37 °FMostly cloudy.No wind86%30.36 "Hg10 mi
9:32 pm38 °FMostly cloudy.No wind79%30.36 "Hg10 mi
9:21 pm38 °FLight rain. Mostly cloudy.No wind79%30.36 "Hg10 mi
Weather by CustomWeather, © 2017

See weather overviewHow to use our weather pages